Weather History for Dodge City, KS

Change the Weather History Date:

Wednesday, September 4, 2013

  Actual Average Record
Temperature  
Mean Temperature 78 °F -  
Max Temperature 93 °F 86 °F 103 °F (2000)
Min Temperature 63 °F 61 °F 47 °F (1962)
Cooling Degree Days 13    
Growing Degree Days 28 (Base 50)    
Moisture  
Dew Point 54 °F    
Average Humidity 43    
Maximum Humidity 70    
Minimum Humidity 19    
Precipitation  
Precipitation 0.00 in - - ()
Sea Level Pressure  
Sea Level Pressure 30.03 in    
Wind  
Wind Speed 12 mph (South)    
Max Wind Speed 18 mph    
Max Gust Speed 24 mph    
Visibility 10 miles    
Events      
Averages and records for this station are not official NWS values.
T = Trace of Precipitation, MM = Missing Value Source: NWS Daily Summary

Daily Weather History Graph

Daily Weather History Graph

Search for Another Location

Airport:

Trip Planner

Search our weather history database for the weather conditions in past years. The results will help you decide how hot, cold, wet, or windy it might be!

Date:

Astronomy

Sep. 04, 2013 Rise Set
Actual Time 7:12 AM CDT 8:04 PM CDT
Civil Twilight 6:46 AM CDT 8:30 PM CDT
Nautical Twilight 6:14 AM CDT 9:02 PM CDT
Astronomical Twilight 5:41 AM CDT 9:34 PM CDT
Moon 6:26 AM CDT (9/4) 7:25 PM CDT (9/4)
Length of Visible Light 13h 44m
Length of Day
12h 51m
Waning Crescent, 1% of the Moon is Illuminated
Sep 4
Waning Crescent
Sep 5
New
Sep 12
First Quarter
Sep 19
Full
Sep 26
Last Quarter

Hourly Weather History & Observations

Time (CDT) Temp. Heat Index Dew Point Humidity Pressure Visibility Wind Dir Wind Speed Gust Speed Precip Events Conditions
12:52 AM 69.1 °F - 54.0 °F 58% 30.00 in 10.0 mi SSE 11.5 mph - N/A   Clear
1:52 AM 69.1 °F - 54.0 °F 58% 30.00 in 10.0 mi South 12.7 mph - N/A   Clear
2:52 AM 69.1 °F - 53.1 °F 57% 30.01 in 10.0 mi South 10.4 mph - N/A   Clear
3:52 AM 64.9 °F - 54.0 °F 68% 30.03 in 10.0 mi South 9.2 mph - N/A   Clear
4:52 AM 64.0 °F - 54.0 °F 70% 30.03 in 10.0 mi South 10.4 mph - N/A   Clear
5:52 AM 64.9 °F - 53.1 °F 65% 30.04 in 10.0 mi South 11.5 mph - N/A   Clear
6:52 AM 63.0 °F - 53.1 °F 70% 30.05 in 10.0 mi South 9.2 mph - N/A   Clear
7:52 AM 64.9 °F - 54.0 °F 68% 30.07 in 9.0 mi South 9.2 mph - N/A   Clear
8:52 AM 72.0 °F - 54.0 °F 53% 30.08 in 10.0 mi South 12.7 mph - N/A   Clear
9:52 AM 78.1 °F - 54.0 °F 43% 30.06 in 10.0 mi South 17.3 mph - N/A   Clear
10:52 AM 82.9 °F 81.8 °F 53.1 °F 36% 30.06 in 10.0 mi South 16.1 mph - N/A   Clear
11:52 AM 88.0 °F 85.9 °F 54.0 °F 31% 30.05 in 10.0 mi South 15.0 mph - N/A   Clear
12:52 PM 90.0 °F 87.9 °F 55.0 °F 30% 30.05 in 10.0 mi South 16.1 mph 23.0 mph N/A   Clear
1:52 PM 93.0 °F 91.4 °F 55.9 °F 29% 30.03 in 10.0 mi South 18.4 mph 23.0 mph N/A   Clear
2:52 PM 93.0 °F 91.4 °F 55.9 °F 29% 30.02 in 10.0 mi SSE 15.0 mph - N/A   Clear
3:52 PM 93.9 °F 92.2 °F 55.9 °F 28% 30.01 in 10.0 mi SSE 15.0 mph 24.2 mph N/A   Clear
4:52 PM 93.0 °F 91.1 °F 55.0 °F 28% 30.01 in 10.0 mi SE 12.7 mph - N/A   Clear
5:52 PM 91.9 °F 90.0 °F 55.0 °F 29% 30.01 in 10.0 mi South 13.8 mph - N/A   Clear
6:52 PM 89.1 °F 87.1 °F 55.0 °F 31% 30.01 in 10.0 mi SSE 17.3 mph - N/A   Clear
7:52 PM 84.0 °F 82.9 °F 55.0 °F 37% 30.01 in 8.0 mi SSE 11.5 mph - N/A   Clear
8:52 PM 78.1 °F - 54.0 °F 43% 30.02 in 10.0 mi SE 10.4 mph - N/A   Clear
9:52 PM 75.9 °F - 53.1 °F 45% 30.04 in 10.0 mi SE 11.5 mph - N/A   Clear
10:52 PM 73.9 °F - 51.1 °F 45% 30.05 in 10.0 mi SSE 10.4 mph - N/A   Clear
11:52 PM 75.0 °F - 46.9 °F 37% 30.05 in 10.0 mi South 15.0 mph - N/A   Clear